| time (UTC) | temp C | wind direction | speed KPH | gust KPH | rain 1hr cm | rain 24hr cm | rain mn cm | humidity % | barometer mb |
| 20260505041554 | 11 | 0 | 0.0 | 4.8 | 0.00 | 0.00 | 0.00 | 80 | 1009.5 |
| 20260505041041 | 11 | 0 | 1.6 | 4.8 | 0.00 | 0.00 | 0.00 | 81 | 1009.4 |
| 20260505040544 | 11 | 68 | 0.0 | 3.2 | 0.00 | 0.00 | 0.00 | 80 | 1009.4 |
| 20260505040050 | 11 | 56 | 0.0 | 3.2 | 0.00 | 0.00 | 0.00 | 80 | 1009.3 |
| 20260505035541 | 11 | 0 | 0.0 | 4.8 | 0.00 | 0.00 | 0.00 | 79 | 1009.4 |
| 20260505035041 | 11 | 0 | 1.6 | 4.8 | 0.00 | 0.00 | 0.00 | 78 | 1009.3 |
| 20260505034553 | 11 | 55 | 0.0 | 3.2 | 0.00 | 0.00 | 0.00 | 79 | 1009.3 |
| 20260505034041 | 11 | 54 | 1.6 | 3.2 | 0.00 | 0.00 | 0.00 | 79 | 1009.3 |
| 20260505033541 | 11 | 0 | 0.0 | 3.2 | 0.00 | 0.00 | 0.00 | 78 | 1009.3 |
| 20260505033051 | 12 | 77 | 0.0 | 3.2 | 0.00 | 0.00 | 0.00 | 76 | 1009.3 |
| 20260505032541 | 12 | 0 | 0.0 | 1.6 | 0.00 | 0.00 | 0.00 | 74 | 1009.2 |
| 20260505032045 | 12 | 0 | 0.0 | 3.2 | 0.00 | 0.00 | 0.00 | 74 | 1009.2 |
| 20260505031554 | 12 | 84 | 0.0 | 4.8 | 0.00 | 0.00 | 0.00 | 74 | 1009.3 |
| 20260505031042 | 12 | 0 | 0.0 | 4.8 | 0.00 | 0.00 | 0.00 | 73 | 1009.3 |
| 20260505030547 | 12 | 86 | 3.2 | 4.8 | 0.00 | 0.00 | 0.00 | 74 | 1009.2 |
| 20260505030049 | 12 | 82 | 0.0 | 3.2 | 0.00 | 0.00 | 0.00 | 73 | 1009.3 |
| 20260505025541 | 13 | 82 | 0.0 | 3.2 | 0.00 | 0.00 | 0.00 | 72 | 1009.3 |
| 20260505025045 | 13 | 82 | 0.0 | 3.2 | 0.00 | 0.00 | 0.00 | 71 | 1009.3 |
| 20260505024552 | 13 | 82 | 0.0 | 3.2 | 0.00 | 0.00 | 0.00 | 70 | 1009.4 |
| 20260505024041 | 13 | 0 | 0.0 | 3.2 | 0.00 | 0.00 | 0.00 | 69 | 1009.4 |
| 20260505023543 | 13 | 70 | 0.0 | 6.4 | 0.00 | 0.00 | 0.00 | 68 | 1009.5 |
| 20260505023052 | 15 | 69 | 0.0 | 6.4 | 0.00 | 0.00 | 0.00 | 65 | 1009.5 |
| 20260505022541 | 15 | 65 | 4.8 | 6.4 | 0.00 | 0.00 | 0.00 | 62 | 1009.5 |
| 20260505022042 | 15 | 53 | 3.2 | 9.7 | 0.00 | 0.00 | 0.00 | 62 | 1009.6 |
| 20260505021549 | 15 | 56 | 4.8 | 9.7 | 0.00 | 0.00 | 0.00 | 62 | 1009.6 |
| 20260505021041 | 15 | 60 | 1.6 | 11.3 | 0.00 | 0.00 | 0.00 | 61 | 1009.6 |
| 20260505020541 | 16 | 51 | 4.8 | 11.3 | 0.00 | 0.00 | 0.00 | 61 | 1009.6 |
| 20260505020046 | 16 | 76 | 4.8 | 11.3 | 0.00 | 0.00 | 0.00 | 61 | 1009.6 |
| 20260505015545 | 15 | 72 | 6.4 | 14.5 | 0.00 | 0.00 | 0.00 | 61 | 1009.6 |
| 20260505015045 | 16 | 51 | 6.4 | 14.5 | 0.00 | 0.00 | 0.00 | 61 | 1009.6 |
| 20260505014548 | 16 | 56 | 8.0 | 14.5 | 0.00 | 0.00 | 0.00 | 60 | 1009.6 |
| 20260505014044 | 16 | 63 | 8.0 | 17.7 | 0.00 | 0.00 | 0.00 | 60 | 1009.6 |
| 20260505013541 | 16 | 68 | 9.7 | 17.7 | 0.00 | 0.00 | 0.00 | 60 | 1009.5 |
| 20260505013102 | 16 | 72 | 8.0 | 16.1 | 0.00 | 0.00 | 0.00 | 60 | 1009.6 |
| 20260505012549 | 16 | 40 | 6.4 | 11.3 | 0.00 | 0.00 | 0.00 | 60 | 1009.6 |
| 20260505012041 | 16 | 49 | 6.4 | 11.3 | 0.00 | 0.00 | 0.00 | 60 | 1009.5 |
| 20260505011554 | 16 | 54 | 6.4 | 11.3 | 0.00 | 0.00 | 0.00 | 60 | 1009.5 |
| 20260505011040 | 16 | 58 | 6.4 | 12.9 | 0.00 | 0.00 | 0.00 | 61 | 1009.7 |
| 20260505010541 | 16 | 44 | 6.4 | 12.9 | 0.00 | 0.00 | 0.00 | 61 | 1009.6 |
| 20260505005542 | 16 | 55 | 8.0 | 14.5 | 0.00 | 0.00 | 0.00 | 60 | 1009.7 |
| 20260505005041 | 16 | 52 | 8.0 | 14.5 | 0.00 | 0.00 | 0.00 | 60 | 1009.7 |
| 20260505004552 | 16 | 9 | 6.4 | 11.3 | 0.00 | 0.00 | 0.00 | 60 | 1009.7 |
| 20260505004040 | 16 | 331 | 4.8 | 14.5 | 0.00 | 0.00 | 0.00 | 60 | 1009.7 |
| 20260505003544 | 16 | 338 | 8.0 | 14.5 | 0.00 | 0.00 | 0.00 | 59 | 1009.8 |
| 20260505003057 | 16 | 63 | 8.0 | 14.5 | 0.00 | 0.00 | 0.00 | 59 | 1009.8 |
| 20260505002541 | 16 | 39 | 4.8 | 12.9 | 0.00 | 0.00 | 0.00 | 59 | 1010.0 |
| 20260505002041 | 16 | 32 | 6.4 | 12.9 | 0.00 | 0.00 | 0.00 | 59 | 1009.9 |
| 20260505001548 | 16 | 35 | 6.4 | 9.7 | 0.00 | 0.00 | 0.00 | 59 | 1009.9 |
| 20260505001042 | 16 | 28 | 4.8 | 8.0 | 0.00 | 0.00 | 0.00 | 60 | 1009.9 |
| 20260505000541 | 17 | 32 | 4.8 | 8.0 | 0.00 | 0.00 | 0.00 | 59 | 1010.0 |
| 20260505000059 | 17 | 38 | 3.2 | 8.0 | 0.00 | 0.00 | 0.00 | 59 | 1010.0 |
| 20260504235541 | 16 | 25 | 6.4 | 8.0 | 0.00 | 0.00 | 0.00 | 59 | 1010.2 |
| 20260504235041 | 16 | 30 | 3.2 | 8.0 | 0.00 | 0.00 | 0.00 | 59 | 1010.2 |
| 20260504234551 | 16 | 34 | 4.8 | 8.0 | 0.00 | 0.00 | 0.00 | 59 | 1010.2 |
| 20260504234040 | 17 | 42 | 4.8 | 8.0 | 0.00 | 0.00 | 0.00 | 59 | 1010.2 |
| 20260504233543 | 17 | 46 | 1.6 | 12.9 | 0.00 | 0.00 | 0.00 | 59 | 1010.3 |
| 20260504233054 | 17 | 36 | 6.4 | 12.9 | 0.00 | 0.00 | 0.00 | 58 | 1010.3 |
| 20260504232542 | 17 | 59 | 8.0 | 12.9 | 0.00 | 0.00 | 0.00 | 58 | 1010.4 |
| 20260504232041 | 17 | 51 | 1.6 | 6.4 | 0.00 | 0.00 | 0.00 | 58 | 1010.4 |
| 20260504231552 | 17 | 35 | 3.2 | 9.7 | 0.00 | 0.00 | 0.00 | 58 | 1010.3 |
| 20260504231040 | 17 | 38 | 3.2 | 9.7 | 0.00 | 0.00 | 0.00 | 59 | 1010.3 |
| 20260504230544 | 16 | 61 | 3.2 | 12.9 | 0.00 | 0.00 | 0.00 | 59 | 1010.3 |
| 20260504230051 | 16 | 33 | 4.8 | 12.9 | 0.00 | 0.00 | 0.00 | 59 | 1010.4 |
| 20260504225541 | 16 | 34 | 8.0 | 12.9 | 0.00 | 0.00 | 0.00 | 59 | 1010.4 |
| 20260504225042 | 16 | 15 | 4.8 | 11.3 | 0.00 | 0.00 | 0.00 | 58 | 1010.4 |
| 20260504224549 | 16 | 340 | 8.0 | 11.3 | 0.00 | 0.00 | 0.00 | 59 | 1010.3 |
| 20260504224041 | 16 | 316 | 8.0 | 11.3 | 0.00 | 0.00 | 0.00 | 59 | 1010.4 |
| 20260504223541 | 16 | 311 | 8.0 | 11.3 | 0.00 | 0.00 | 0.00 | 60 | 1010.4 |
| 20260504223058 | 16 | 321 | 8.0 | 11.3 | 0.00 | 0.00 | 0.00 | 59 | 1010.3 |
| 20260504222541 | 16 | 9 | 9.7 | 12.9 | 0.00 | 0.00 | 0.00 | 59 | 1010.3 |
| 20260504222040 | 16 | 330 | 8.0 | 12.9 | 0.00 | 0.00 | 0.00 | 60 | 1010.3 |
| 20260504221548 | 16 | 333 | 8.0 | 11.3 | 0.00 | 0.00 | 0.00 | 59 | 1010.3 |
| 20260504221040 | 16 | 342 | 8.0 | 11.3 | 0.00 | 0.00 | 0.00 | 59 | 1010.3 |
| 20260504220541 | 16 | 22 | 8.0 | 11.3 | 0.00 | 0.00 | 0.00 | 58 | 1010.3 |
| 20260504220050 | 17 | 351 | 8.0 | 12.9 | 0.00 | 0.00 | 0.00 | 58 | 1010.3 |
| 20260504215542 | 17 | 8 | 6.4 | 12.9 | 0.00 | 0.00 | 0.00 | 57 | 1010.3 |
| 20260504215041 | 17 | 341 | 9.7 | 14.5 | 0.00 | 0.00 | 0.00 | 55 | 1010.3 |
| 20260504214601 | 17 | 18 | 6.4 | 14.5 | 0.00 | 0.00 | 0.00 | 55 | 1010.3 |
| 20260504214041 | 18 | 297 | 8.0 | 22.5 | 0.00 | 0.00 | 0.00 | 54 | 1010.2 |
| 20260504213541 | 18 | 354 | 8.0 | 22.5 | 0.00 | 0.00 | 0.00 | 53 | 1010.2 |
| 20260504213100 | 18 | 288 | 12.9 | 20.9 | 0.00 | 0.00 | 0.00 | 52 | 1010.3 |
| 20260504212541 | 18 | 325 | 9.7 | 16.1 | 0.00 | 0.00 | 0.00 | 54 | 1010.3 |
| 20260504212040 | 18 | 9 | 9.7 | 16.1 | 0.00 | 0.00 | 0.00 | 55 | 1010.2 |
| 20260504211553 | 18 | 343 | 9.7 | 19.3 | 0.00 | 0.00 | 0.00 | 54 | 1010.3 |
| 20260504211043 | 18 | 336 | 11.3 | 19.3 | 0.00 | 0.00 | 0.00 | 52 | 1010.2 |
| 20260504210541 | 19 | 295 | 9.7 | 29.0 | 0.00 | 0.00 | 0.00 | 51 | 1010.3 |
| 20260504210049 | 20 | 290 | 17.7 | 29.0 | 0.00 | 0.00 | 0.00 | 49 | 1010.2 |
| 20260504205541 | 19 | 271 | 16.1 | 22.5 | 0.00 | 0.00 | 0.00 | 50 | 1010.2 |
| 20260504205041 | 18 | 288 | 9.7 | 12.9 | 0.00 | 0.00 | 0.00 | 53 | 1010.2 |
| 20260504204552 | 18 | 298 | 6.4 | 12.9 | 0.00 | 0.00 | 0.00 | 53 | 1010.2 |
| 20260504204041 | 19 | 335 | 3.2 | 14.5 | 0.00 | 0.00 | 0.00 | 52 | 1010.2 |
| 20260504203540 | 19 | 9 | 8.0 | 19.3 | 0.00 | 0.00 | 0.00 | 52 | 1010.2 |
| 20260504203048 | 20 | 326 | 11.3 | 19.3 | 0.00 | 0.00 | 0.00 | 50 | 1010.1 |
| 20260504202541 | 20 | 309 | 9.7 | 24.1 | 0.00 | 0.00 | 0.00 | 51 | 1010.1 |
| 20260504202042 | 20 | 318 | 11.3 | 24.1 | 0.00 | 0.00 | 0.00 | 50 | 1010.1 |
| 20260504201601 | 20 | 273 | 14.5 | 22.5 | 0.00 | 0.00 | 0.00 | 50 | 1010.0 |
| 20260504201044 | 20 | 37 | 8.0 | 16.1 | 0.00 | 0.00 | 0.00 | 50 | 1010.0 |
| 20260504200541 | 20 | 336 | 8.0 | 17.7 | 0.00 | 0.00 | 0.00 | 49 | 1010.0 |
| 20260504200050 | 20 | 297 | 9.7 | 24.1 | 0.00 | 0.00 | 0.00 | 49 | 1010.0 |
| 20260504195540 | 20 | 318 | 11.3 | 24.1 | 0.00 | 0.00 | 0.00 | 48 | 1010.0 |
| 20260504195041 | 21 | 351 | 11.3 | 24.1 | 0.00 | 0.00 | 0.00 | 48 | 1010.0 |
| 20260504194552 | 21 | 335 | 12.9 | 20.9 | 0.00 | 0.00 | 0.00 | 48 | 1009.9 |
| 20260504194041 | 21 | 302 | 12.9 | 20.9 | 0.00 | 0.00 | 0.00 | 47 | 1009.9 |
| 20260504193542 | 21 | 296 | 9.7 | 17.7 | 0.00 | 0.00 | 0.00 | 47 | 1009.8 |
| 20260504193049 | 21 | 326 | 9.7 | 17.7 | 0.00 | 0.00 | 0.00 | 47 | 1009.8 |
| 20260504192542 | 21 | 279 | 8.0 | 19.3 | 0.00 | 0.00 | 0.00 | 47 | 1009.7 |
| 20260504192040 | 21 | 338 | 12.9 | 19.3 | 0.00 | 0.00 | 0.00 | 46 | 1009.8 |
| 20260504191557 | 21 | 8 | 9.7 | 20.9 | 0.00 | 0.00 | 0.00 | 47 | 1009.8 |
| 20260504191042 | 21 | 304 | 12.9 | 20.9 | 0.00 | 0.00 | 0.00 | 46 | 1009.7 |
| 20260504190541 | 21 | 295 | 8.0 | 25.7 | 0.00 | 0.00 | 0.00 | 45 | 1009.7 |
| 20260504190100 | 21 | 341 | 12.9 | 25.7 | 0.00 | 0.00 | 0.00 | 45 | 1009.6 |
| 20260504185545 | 21 | 310 | 14.5 | 25.7 | 0.00 | 0.00 | 0.00 | 45 | 1009.6 |
| 20260504185041 | 21 | 322 | 9.7 | 20.9 | 0.00 | 0.00 | 0.00 | 45 | 1009.5 |
| 20260504184606 | 21 | 349 | 12.9 | 20.9 | 0.00 | 0.00 | 0.00 | 45 | 1009.4 |
| 20260504184041 | 21 | 306 | 11.3 | 22.5 | 0.00 | 0.00 | 0.00 | 45 | 1009.4 |
| 20260504183541 | 22 | 2 | 12.9 | 22.5 | 0.00 | 0.00 | 0.00 | 44 | 1009.4 |
| 20260504183050 | 22 | 355 | 12.9 | 27.4 | 0.00 | 0.00 | 0.00 | 44 | 1009.4 |
| 20260504182540 | 22 | 36 | 11.3 | 27.4 | 0.00 | 0.00 | 0.00 | 43 | 1009.3 |
| 20260504182040 | 22 | 24 | 14.5 | 27.4 | 0.00 | 0.00 | 0.00 | 43 | 1009.3 |
| 20260504181549 | 22 | 325 | 12.9 | 24.1 | 0.00 | 0.00 | 0.00 | 43 | 1009.1 |
| 20260504181041 | 22 | 356 | 11.3 | 37.0 | 0.00 | 0.00 | 0.00 | 42 | 1009.0 |
| 20260504180541 | 22 | 24 | 17.7 | 37.0 | 0.00 | 0.00 | 0.00 | 42 | 1009.1 |
| 20260504180053 | 22 | 30 | 14.5 | 25.7 | 0.00 | 0.00 | 0.00 | 42 | 1008.9 |
| 20260504175541 | 22 | 328 | 11.3 | 25.7 | 0.00 | 0.00 | 0.00 | 42 | 1008.9 |
| 20260504175042 | 22 | 330 | 16.1 | 25.7 | 0.00 | 0.00 | 0.00 | 42 | 1008.8 |
| 20260504174547 | 22 | 52 | 9.7 | 17.7 | 0.00 | 0.00 | 0.00 | 42 | 1008.8 |
| 20260504174041 | 22 | 13 | 8.0 | 19.3 | 0.00 | 0.00 | 0.00 | 41 | 1008.7 |
| 20260504173541 | 22 | 351 | 8.0 | 20.9 | 0.00 | 0.00 | 0.00 | 41 | 1008.6 |
| 20260504173049 | 22 | 319 | 11.3 | 20.9 | 0.00 | 0.00 | 0.00 | 41 | 1008.6 |
| 20260504172540 | 22 | 6 | 8.0 | 12.9 | 0.00 | 0.00 | 0.00 | 40 | 1008.6 |
| 20260504172041 | 23 | 34 | 8.0 | 14.5 | 0.00 | 0.00 | 0.00 | 39 | 1008.5 |
| 20260504171551 | 23 | 349 | 9.7 | 14.5 | 0.00 | 0.00 | 0.00 | 39 | 1008.6 |
| 20260504171041 | 23 | 18 | 6.4 | 12.9 | 0.00 | 0.00 | 0.00 | 39 | 1008.5 |
| 20260504170544 | 23 | 27 | 8.0 | 14.5 | 0.00 | 0.00 | 0.00 | 39 | 1008.5 |
| 20260504151041 | 24 | 36 | 14.5 | 22.5 | 0.00 | 0.00 | 0.00 | 34 | 1008.6 |
| 20260504150541 | 25 | 23 | 12.9 | 20.9 | 0.00 | 0.00 | 0.00 | 34 | 1008.6 |
| 20260504141044 | 25 | 61 | 12.9 | 27.4 | 0.00 | 0.00 | 0.00 | 35 | 1008.8 |
| 20260504140542 | 25 | 347 | 14.5 | 27.4 | 0.00 | 0.00 | 0.00 | 34 | 1009.0 |
| 20260504140107 | 25 | 278 | 14.5 | 24.1 | 0.00 | 0.00 | 0.00 | 36 | 1009.0 |
| 20260504130544 | 25 | 359 | 16.1 | 30.6 | 0.00 | 0.00 | 0.00 | 33 | 1009.4 |
| 20260504120110 | 23 | 326 | 12.9 | 24.1 | 0.00 | 0.00 | 0.00 | 38 | 1010.1 |
| 20260504110547 | 24 | 85 | 0.0 | 6.4 | 0.00 | 0.00 | 0.00 | 45 | 1010.6 |
| 20260504100541 | 21 | 315 | 4.8 | 11.3 | 0.00 | 0.00 | 0.00 | 52 | 1011.6 |
| 20260504081550 | 20 | 94 | 0.0 | 6.4 | 0.00 | 0.00 | 0.00 | 49 | 1012.9 |
| 20260504081040 | 20 | 92 | 1.6 | 6.4 | 0.00 | 0.00 | 0.00 | 50 | 1013.0 |
| 20260504080542 | 20 | 102 | 3.2 | 6.4 | 0.00 | 0.00 | 0.00 | 51 | 1013.1 |
| 20260504050547 | 12 | 324 | 0.0 | 3.2 | 0.00 | 0.00 | 0.00 | 78 | 1013.1 |
| 20260504045541 | 11 | 51 | 0.0 | 1.6 | 0.00 | 0.00 | 0.00 | 78 | 1013.0 |